QFA380 EGLL-OMDB

Flight info

Callsign QFA380
Flight time 7h 7m
Altitude 37000
Route DET L6 DVR UL9 KONAN UL607 KOK DCT REMBA DCT LIRSU DCT KRH DCT UTABA DCT MOMUK DCT GEDSO DCT VEKEN DCT MSR DCT PINDO DCT PAXIS Y707 OBRAN L321 REXUM M872 BOPOB/N0491F390 M872 BDB Y214 RAPMA DCT KUVSO DCT KATIT DCT PEKEM M628 RIGIL G783 ELUDA/N0478F350 G783 ASPED Q308 KIPOK Q568 IMPED
Aircraft A388/J-SADE2E3FGHIJ3J4J5M1RWXY/LB1D1

Departure

Time 2026-05-05 14:20
Airport London Heathrow Airport (EGLL)

Arrival

Time 2026-05-05 21:27
Airport Dubai International Airport (OMDB)
Time Latitude Longitude Altitude Speed Heading
2026-05-05 13:09 51.47319 -0.46593 91 ft 0 kts 90°
2026-05-05 14:01 51.47319 -0.46615 93 ft 4 kts 90°
2026-05-05 14:01 51.47319 -0.46655 91 ft 2 kts 90°
2026-05-05 14:02 51.47321 -0.46691 91 ft 4 kts 106°
2026-05-05 14:02 51.47330 -0.46718 94 ft 4 kts 142°
2026-05-05 14:02 51.47345 -0.46726 92 ft 3 kts 180°
2026-05-05 14:02 51.47372 -0.46726 91 ft 4 kts 180°
2026-05-05 14:03 51.47382 -0.46726 90 ft 0 kts 180°
2026-05-05 14:07 51.47381 -0.46726 90 ft 1 kts 180°
2026-05-05 14:08 51.47366 -0.46726 92 ft 4 kts 179°
2026-05-05 14:08 51.47331 -0.46725 94 ft 7 kts 179°
2026-05-05 14:08 51.47276 -0.46724 91 ft 9 kts 179°
2026-05-05 14:08 51.47204 -0.46723 91 ft 12 kts 179°
2026-05-05 14:09 51.47156 -0.46722 91 ft 2 kts 179°
2026-05-05 14:09 51.47134 -0.46721 91 ft 5 kts 179°
2026-05-05 14:09 51.47090 -0.46721 91 ft 8 kts 179°
2026-05-05 14:09 51.47031 -0.46702 95 ft 9 kts 151°
2026-05-05 14:10 51.46971 -0.46637 94 ft 11 kts 145°
2026-05-05 14:10 51.46903 -0.46562 96 ft 12 kts 145°
2026-05-05 14:10 51.46834 -0.46486 93 ft 8 kts 145°
2026-05-05 14:10 51.46788 -0.46436 95 ft 8 kts 151°
2026-05-05 14:11 51.46731 -0.46412 94 ft 9 kts 181°
2026-05-05 14:11 51.46673 -0.46447 95 ft 9 kts 238°
2026-05-05 14:11 51.46658 -0.46552 95 ft 11 kts 267°
2026-05-05 14:11 51.46657 -0.46679 94 ft 12 kts 270°
2026-05-05 14:12 51.46657 -0.46821 94 ft 13 kts 270°
2026-05-05 14:12 51.46656 -0.46977 94 ft 14 kts 270°
2026-05-05 14:12 51.46656 -0.47144 94 ft 15 kts 270°
2026-05-05 14:12 51.46656 -0.47321 94 ft 16 kts 270°
2026-05-05 14:13 51.46655 -0.47482 94 ft 13 kts 269°
2026-05-05 14:13 51.46654 -0.47634 94 ft 13 kts 270°
2026-05-05 14:13 51.46654 -0.47783 92 ft 13 kts 270°
2026-05-05 14:13 51.46653 -0.47927 91 ft 13 kts 269°
2026-05-05 14:14 51.46653 -0.48061 94 ft 13 kts 270°
2026-05-05 14:14 51.46652 -0.48197 91 ft 13 kts 270°
2026-05-05 14:14 51.46652 -0.48342 93 ft 12 kts 270°
2026-05-05 14:14 51.46652 -0.48486 91 ft 13 kts 270°
2026-05-05 14:15 51.46651 -0.48609 91 ft 8 kts 270°
2026-05-05 14:15 51.46651 -0.48628 94 ft 3 kts 270°
2026-05-05 14:15 51.46651 -0.48652 91 ft 0 kts 270°
2026-05-05 14:15 51.46651 -0.48655 91 ft 0 kts 270°
2026-05-05 14:16 51.46651 -0.48659 91 ft 2 kts 270°
2026-05-05 14:16 51.46651 -0.48667 91 ft 0 kts 270°
2026-05-05 14:16 51.46651 -0.48690 93 ft 4 kts 268°
2026-05-05 14:16 51.46643 -0.48730 96 ft 4 kts 226°
2026-05-05 14:17 51.46615 -0.48757 95 ft 6 kts 200°
2026-05-05 14:17 51.46565 -0.48784 93 ft 9 kts 190°
2026-05-05 14:17 51.46503 -0.48762 96 ft 9 kts 140°
2026-05-05 14:17 51.46479 -0.48673 92 ft 9 kts 94°
2026-05-05 14:18 51.46479 -0.48574 91 ft 9 kts 89°
2026-05-05 14:18 51.46480 -0.48475 91 ft 9 kts 89°
2026-05-05 14:18 51.46480 -0.48374 94 ft 9 kts 90°
2026-05-05 14:18 51.46480 -0.48282 93 ft 8 kts 89°
2026-05-05 14:19 51.46481 -0.48193 93 ft 12 kts 89°
2026-05-05 14:19 51.46484 -0.47652 93 ft 87 kts 90°
2026-05-05 14:19 51.46489 -0.46346 95 ft 143 kts 90°
2026-05-05 14:19 51.46477 -0.44571 220 ft 167 kts 87°
2026-05-05 14:20 51.46478 -0.42737 717 ft 167 kts 86°
2026-05-05 14:20 51.46376 -0.40855 1177 ft 173 kts 109°
2026-05-05 14:20 51.45756 -0.39208 1705 ft 174 kts 124°
2026-05-05 14:20 51.44986 -0.37610 1956 ft 189 kts 124°
2026-05-05 14:21 51.44235 -0.35790 2132 ft 203 kts 115°
2026-05-05 14:21 51.43648 -0.33654 2221 ft 217 kts 106°
2026-05-05 14:21 51.43188 -0.31213 2485 ft 238 kts 102°
2026-05-05 14:21 51.42784 -0.28542 2862 ft 255 kts 100°
2026-05-05 14:22 51.42400 -0.25758 3615 ft 257 kts 100°
2026-05-05 14:22 51.42025 -0.22945 4367 ft 260 kts 99°
2026-05-05 14:22 51.41646 -0.20102 5136 ft 262 kts 99°
2026-05-05 14:22 51.41259 -0.17244 5771 ft 266 kts 100°
2026-05-05 14:23 51.40858 -0.14309 5975 ft 270 kts 101°
2026-05-05 14:23 51.40452 -0.11362 5991 ft 271 kts 101°
2026-05-05 14:23 51.40046 -0.08434 5991 ft 269 kts 101°
2026-05-05 14:23 51.39640 -0.05521 5986 ft 268 kts 100°
2026-05-05 14:24 51.39237 -0.02605 5986 ft 268 kts 101°
2026-05-05 14:24 51.38831 0.00320 6004 ft 270 kts 101°
2026-05-05 14:24 51.38422 0.03255 6003 ft 270 kts 100°
2026-05-05 14:24 51.38013 0.06190 6003 ft 269 kts 100°
2026-05-05 14:25 51.37605 0.09111 6001 ft 269 kts 101°
2026-05-05 14:25 51.37201 0.11988 6003 ft 270 kts 101°
2026-05-05 14:25 51.36783 0.14964 6003 ft 270 kts 101°
2026-05-05 14:25 51.36371 0.17894 6001 ft 270 kts 101°
2026-05-05 14:26 51.35959 0.20813 6002 ft 269 kts 100°
2026-05-05 14:26 51.35553 0.23695 6003 ft 270 kts 100°
2026-05-05 14:26 51.35142 0.26618 5998 ft 271 kts 101°
2026-05-05 14:26 51.34725 0.29555 5998 ft 270 kts 101°
2026-05-05 14:27 51.34307 0.32488 5994 ft 269 kts 100°
2026-05-05 14:27 51.33891 0.35413 5999 ft 269 kts 101°
2026-05-05 14:27 51.33474 0.38333 5998 ft 270 kts 101°
2026-05-05 14:27 51.33056 0.41260 5992 ft 270 kts 100°
2026-05-05 14:28 51.32639 0.44174 6126 ft 268 kts 101°
2026-05-05 14:28 51.32223 0.47066 6130 ft 268 kts 101°
2026-05-05 14:28 51.31804 0.49983 6131 ft 269 kts 100°
2026-05-05 14:28 51.31387 0.52899 6130 ft 270 kts 100°
2026-05-05 14:29 51.30967 0.55820 6127 ft 269 kts 101°
2026-05-05 14:29 51.30545 0.58728 6118 ft 269 kts 100°
2026-05-05 14:29 51.30067 0.61623 6098 ft 271 kts 104°
2026-05-05 14:29 51.29530 0.64524 6288 ft 274 kts 104°
2026-05-05 14:30 51.28992 0.67463 6943 ft 274 kts 104°
2026-05-05 14:30 51.28468 0.70325 7910 ft 267 kts 104°
2026-05-05 14:30 51.27941 0.73203 8599 ft 272 kts 104°
2026-05-05 14:30 51.27409 0.76113 9322 ft 275 kts 105°
2026-05-05 14:31 51.26867 0.79071 10025 ft 278 kts 105°
2026-05-05 14:31 51.26315 0.82072 10508 ft 289 kts 105°
2026-05-05 14:31 51.25728 0.85263 10690 ft 309 kts 105°
2026-05-05 14:31 51.25104 0.88659 10849 ft 328 kts 105°
2026-05-05 14:32 51.24445 0.92222 11123 ft 340 kts 106°
2026-05-05 14:32 51.23771 0.95853 11736 ft 342 kts 105°
2026-05-05 14:32 51.23093 0.99501 12383 ft 344 kts 105°
2026-05-05 14:32 51.22412 1.03162 13032 ft 345 kts 105°
2026-05-05 14:33 51.21724 1.06855 13612 ft 349 kts 105°
2026-05-05 14:33 51.21027 1.10587 14151 ft 351 kts 105°
2026-05-05 14:33 51.20329 1.14313 14720 ft 353 kts 105°
2026-05-05 14:33 51.19624 1.18078 15255 ft 356 kts 106°
2026-05-05 14:34 51.18911 1.21875 15743 ft 360 kts 106°
2026-05-05 14:34 51.18187 1.25721 16231 ft 363 kts 106°
2026-05-05 14:34 51.17705 1.28275 16641 ft 363 kts 106°
2026-05-05 14:34 51.16976 1.32133 17195 ft 365 kts 107°
2026-05-05 14:35 51.16334 1.36074 17574 ft 370 kts 100°
2026-05-05 14:35 51.16040 1.40177 18084 ft 373 kts 94°
2026-05-05 14:35 51.15869 1.44304 18590 ft 373 kts 95°
2026-05-05 14:35 51.15677 1.48432 19010 ft 376 kts 95°
2026-05-05 14:36 51.15473 1.52619 19323 ft 381 kts 95°
2026-05-05 14:36 51.15266 1.56830 19833 ft 381 kts 95°
2026-05-05 14:36 51.15057 1.61050 20204 ft 384 kts 95°
2026-05-05 14:36 51.14849 1.65241 20533 ft 389 kts 96°
2026-05-05 14:37 51.14563 1.71009 21171 ft 389 kts 96°
2026-05-05 14:37 51.14416 1.73926 21368 ft 393 kts 96°
2026-05-05 14:37 51.14197 1.78283 21738 ft 396 kts 97°
2026-05-05 14:37 51.13975 1.82658 22164 ft 397 kts 97°
2026-05-05 14:38 51.13752 1.87001 22519 ft 401 kts 96°
2026-05-05 14:38 51.13521 1.91496 22886 ft 404 kts 97°
2026-05-05 14:38 51.13288 1.95970 23293 ft 406 kts 97°
2026-05-05 14:38 51.13053 2.00459 23628 ft 409 kts 97°
2026-05-05 14:39 51.12815 2.04986 23956 ft 411 kts 97°
2026-05-05 14:39 51.12575 2.09530 24316 ft 412 kts 97°
2026-05-05 14:39 51.12330 2.14091 24603 ft 416 kts 97°
2026-05-05 14:39 51.12085 2.18629 24938 ft 417 kts 97°
2026-05-05 14:40 51.11833 2.23292 25300 ft 419 kts 97°
2026-05-05 14:40 51.11582 2.27866 25611 ft 422 kts 97°
2026-05-05 14:40 51.11325 2.32526 25977 ft 424 kts 98°
2026-05-05 14:40 51.11065 2.37200 26339 ft 426 kts 97°
2026-05-05 14:41 51.10802 2.41904 26743 ft 428 kts 97°
2026-05-05 14:41 51.10537 2.46628 27134 ft 430 kts 98°
2026-05-05 14:41 51.10266 2.51383 27535 ft 432 kts 98°
2026-05-05 14:41 51.09993 2.56158 27921 ft 435 kts 98°
2026-05-05 14:42 51.09718 2.60963 28355 ft 437 kts 98°
2026-05-05 14:42 51.09301 2.65752 28720 ft 438 kts 104°
2026-05-05 14:42 51.08545 2.70415 29101 ft 439 kts 109°
2026-05-05 14:42 51.07672 2.75086 29552 ft 441 kts 108°
2026-05-05 14:43 51.06820 2.79774 29936 ft 444 kts 108°
2026-05-05 14:43 51.05965 2.84511 30249 ft 448 kts 108°
2026-05-05 14:43 51.05106 2.89263 30712 ft 447 kts 109°
2026-05-05 14:43 51.04241 2.94021 31063 ft 450 kts 109°
2026-05-05 14:44 51.03366 2.98810 31412 ft 452 kts 109°
2026-05-05 14:44 51.02485 3.03615 31766 ft 454 kts 109°
2026-05-05 14:44 51.01597 3.08442 32101 ft 457 kts 109°
2026-05-05 14:44 51.00703 3.13291 32438 ft 459 kts 109°
2026-05-05 14:45 50.99802 3.18168 32792 ft 461 kts 109°
2026-05-05 14:45 50.98895 3.23059 33123 ft 463 kts 109°
2026-05-05 14:45 50.97982 3.27974 33458 ft 466 kts 109°
2026-05-05 14:45 50.97060 3.32921 33843 ft 467 kts 110°
2026-05-05 14:46 50.96138 3.37860 34117 ft 469 kts 110°
2026-05-05 14:46 50.95205 3.42840 34348 ft 473 kts 110°
2026-05-05 14:46 50.94263 3.47855 34655 ft 475 kts 110°
2026-05-05 14:46 50.93318 3.52872 34967 ft 476 kts 110°
2026-05-05 14:47 50.92367 3.57914 35283 ft 477 kts 110°
2026-05-05 14:47 50.91413 3.62955 35599 ft 478 kts 110°
2026-05-05 14:47 50.90467 3.67940 35902 ft 480 kts 110°
2026-05-05 14:47 50.89492 3.73063 36220 ft 481 kts 109°
2026-05-05 14:48 50.88535 3.78075 36514 ft 482 kts 110°
2026-05-05 14:48 50.87562 3.83158 36814 ft 483 kts 110°
2026-05-05 14:48 50.85588 3.93428 36880 ft 487 kts 110°
2026-05-05 14:49 50.83615 4.03650 36883 ft 486 kts 110°
2026-05-05 14:49 50.81626 4.13891 36889 ft 487 kts 110°
2026-05-05 14:50 50.79628 4.24123 36879 ft 486 kts 110°
2026-05-05 14:50 50.77637 4.34272 36877 ft 482 kts 110°
2026-05-05 14:51 50.75646 4.44361 36840 ft 480 kts 110°
2026-05-05 14:51 50.73658 4.54384 36833 ft 477 kts 110°
2026-05-05 14:52 50.71661 4.64392 36887 ft 482 kts 110°
2026-05-05 14:52 50.69639 4.74479 36889 ft 482 kts 110°
2026-05-05 14:53 50.67608 4.84564 36880 ft 482 kts 110°
2026-05-05 14:53 50.65319 4.94469 36881 ft 480 kts 117°
2026-05-05 14:54 50.62445 5.03944 36882 ft 479 kts 118°
2026-05-05 14:54 50.59595 5.13423 36863 ft 479 kts 118°
2026-05-05 14:55 50.56740 5.22873 36862 ft 478 kts 118°
2026-05-05 14:55 50.53873 5.32313 36864 ft 479 kts 118°
2026-05-05 14:56 50.50940 5.41920 36871 ft 495 kts 118°
2026-05-05 14:56 50.47951 5.51686 36871 ft 495 kts 118°
2026-05-05 14:57 50.44956 5.61436 36862 ft 496 kts 118°
2026-05-05 14:57 50.41951 5.71170 36861 ft 496 kts 119°
2026-05-05 14:58 50.38937 5.80895 36858 ft 496 kts 119°
2026-05-05 14:58 50.35941 5.90528 36853 ft 495 kts 119°
2026-05-05 14:59 50.32913 6.00222 36832 ft 496 kts 119°
2026-05-05 14:59 50.29896 6.09846 36849 ft 491 kts 119°
2026-05-05 15:00 50.27371 6.17870 36844 ft 491 kts 119°
2026-05-05 15:00 50.23855 6.28996 36833 ft 490 kts 119°
2026-05-05 15:01 50.20830 6.38535 36829 ft 490 kts 119°
2026-05-05 15:01 50.17331 6.47617 36813 ft 487 kts 129°
2026-05-05 15:02 50.13053 6.55751 36817 ft 485 kts 133°
2026-05-05 15:02 50.08701 6.63785 36821 ft 485 kts 133°
2026-05-05 15:03 50.04353 6.71814 36823 ft 485 kts 133°
2026-05-05 15:03 49.99997 6.79826 36823 ft 485 kts 133°
2026-05-05 15:04 49.95624 6.87838 36828 ft 487 kts 133°
2026-05-05 15:04 49.91245 6.95839 36825 ft 486 kts 133°
2026-05-05 15:05 49.84665 7.07819 36829 ft 487 kts 133°
2026-05-05 15:06 49.80271 7.15785 36830 ft 486 kts 133°
2026-05-05 15:06 49.75866 7.23746 36831 ft 486 kts 133°
2026-05-05 15:07 49.71448 7.31707 36832 ft 489 kts 133°
2026-05-05 15:07 49.67017 7.39669 36832 ft 489 kts 133°
2026-05-05 15:08 49.62605 7.47573 36834 ft 489 kts 133°
2026-05-05 15:08 49.58163 7.55507 36825 ft 489 kts 133°
2026-05-05 15:09 49.53717 7.63423 36823 ft 489 kts 133°
2026-05-05 15:09 49.49263 7.71325 36825 ft 489 kts 134°
2026-05-05 15:10 49.44801 7.79220 36823 ft 489 kts 134°
2026-05-05 15:10 49.40332 7.87105 36830 ft 489 kts 134°
2026-05-05 15:11 49.35865 7.94963 36831 ft 489 kts 134°
2026-05-05 15:11 49.31383 8.02823 36817 ft 489 kts 134°
2026-05-05 15:12 49.26902 8.10656 36844 ft 489 kts 134°
2026-05-05 15:12 49.22419 8.18473 36857 ft 490 kts 134°
2026-05-05 15:13 49.17911 8.26306 36847 ft 490 kts 134°
2026-05-05 15:13 49.13397 8.34129 36843 ft 490 kts 134°
2026-05-05 15:14 49.09035 8.41665 36829 ft 491 kts 134°
2026-05-05 15:14 49.05276 8.48143 36858 ft 491 kts 134°
2026-05-05 15:15 49.00669 8.56003 36860 ft 490 kts 136°
2026-05-05 15:15 48.95666 8.62875 36855 ft 486 kts 145°
2026-05-05 15:16 48.90342 8.69235 36839 ft 487 kts 144°
2026-05-05 15:16 48.85031 8.75633 36830 ft 488 kts 144°
2026-05-05 15:17 48.79718 8.82020 36845 ft 487 kts 144°
2026-05-05 15:17 48.74402 8.88389 36842 ft 487 kts 144°
2026-05-05 15:18 48.69078 8.94751 36840 ft 488 kts 144°
2026-05-05 15:18 48.63750 9.01098 36833 ft 488 kts 144°
2026-05-05 15:19 48.58420 9.07432 36832 ft 487 kts 144°
2026-05-05 15:19 48.53086 9.13752 36823 ft 487 kts 145°
2026-05-05 15:20 48.47746 9.20059 36853 ft 488 kts 145°
2026-05-05 15:20 48.42400 9.26358 36856 ft 488 kts 145°
2026-05-05 15:21 48.37050 9.32645 36850 ft 488 kts 145°
2026-05-05 15:21 48.31726 9.38884 36847 ft 488 kts 145°
2026-05-05 15:22 48.26369 9.45145 36845 ft 488 kts 145°
2026-05-05 15:22 48.21979 9.50505 36840 ft 491 kts 142°
2026-05-05 15:23 48.16855 9.57286 36835 ft 491 kts 142°
2026-05-05 15:23 48.11712 9.64009 36834 ft 491 kts 142°
2026-05-05 15:24 48.06548 9.70673 36832 ft 491 kts 143°
2026-05-05 15:24 48.01366 9.77330 36833 ft 492 kts 143°
2026-05-05 15:25 47.96176 9.83980 36845 ft 492 kts 143°
2026-05-05 15:25 47.90979 9.90621 36868 ft 493 kts 143°
2026-05-05 15:26 47.85886 9.97463 36868 ft 496 kts 137°
2026-05-05 15:26 47.81570 10.05541 36848 ft 502 kts 127°
2026-05-05 15:27 47.78041 10.14485 36839 ft 504 kts 124°
2026-05-05 15:27 47.74492 10.23554 36856 ft 509 kts 125°
2026-05-05 15:28 47.70895 10.32667 36853 ft 508 kts 125°
2026-05-05 15:28 47.67310 10.41713 36857 ft 508 kts 125°
2026-05-05 15:29 47.63718 10.50748 36857 ft 508 kts 125°
2026-05-05 15:29 47.60127 10.59745 36853 ft 511 kts 125°
2026-05-05 15:30 47.56507 10.68789 36852 ft 511 kts 125°
2026-05-05 15:30 47.52891 10.77795 36826 ft 512 kts 126°
2026-05-05 15:31 47.49256 10.86811 36816 ft 510 kts 126°
2026-05-05 15:31 47.45602 10.95851 36814 ft 513 kts 126°
2026-05-05 15:32 47.41925 11.04906 36829 ft 515 kts 126°
2026-05-05 15:32 47.38243 11.13966 36829 ft 515 kts 125°
2026-05-05 15:33 47.34552 11.23013 36826 ft 514 kts 126°
2026-05-05 15:33 47.30836 11.32069 36828 ft 517 kts 125°
2026-05-05 15:34 47.27109 11.41134 36825 ft 517 kts 125°
2026-05-05 15:34 47.23379 11.50182 36831 ft 517 kts 125°
2026-05-05 15:35 47.19639 11.59218 36841 ft 517 kts 125°
2026-05-05 15:35 47.15890 11.68249 36851 ft 519 kts 125°
2026-05-05 15:36 47.12122 11.77301 36879 ft 518 kts 125°
2026-05-05 15:36 47.08356 11.86320 36902 ft 518 kts 124°
2026-05-05 15:37 47.05096 11.95800 36911 ft 521 kts 119°
2026-05-05 15:37 47.01925 12.05359 36910 ft 521 kts 120°
2026-05-05 15:38 46.98735 12.14889 36922 ft 521 kts 120°
2026-05-05 15:38 46.95526 12.24410 36971 ft 521 kts 120°
2026-05-05 15:39 46.92316 12.33906 36969 ft 521 kts 120°
2026-05-05 15:39 46.89117 12.43331 36986 ft 521 kts 120°
2026-05-05 15:40 46.85886 12.52813 36986 ft 520 kts 120°
2026-05-05 15:40 46.82650 12.62280 36955 ft 520 kts 120°
2026-05-05 15:41 46.79409 12.71724 36928 ft 521 kts 120°
2026-05-05 15:41 46.76155 12.81165 36955 ft 519 kts 120°
2026-05-05 15:42 46.72896 12.90597 36966 ft 521 kts 120°
2026-05-05 15:42 46.69626 13.00036 36971 ft 522 kts 120°
2026-05-05 15:43 46.66349 13.09447 36961 ft 522 kts 120°
2026-05-05 15:43 46.63057 13.18872 36970 ft 522 kts 120°
2026-05-05 15:44 46.59759 13.28275 36982 ft 521 kts 120°
2026-05-05 15:44 46.56106 13.37312 36983 ft 517 kts 129°
2026-05-05 15:45 46.51462 13.45208 36983 ft 514 kts 139°
2026-05-05 15:45 46.46411 13.52558 36989 ft 514 kts 138°
2026-05-05 15:46 46.41385 13.59935 36983 ft 514 kts 138°
2026-05-05 15:46 46.36396 13.67247 36998 ft 514 kts 138°
2026-05-05 15:47 46.31372 13.74579 36998 ft 515 kts 138°
2026-05-05 15:47 46.26303 13.81949 37006 ft 515 kts 138°
2026-05-05 15:48 46.21239 13.89292 37013 ft 516 kts 138°
2026-05-05 15:48 46.16167 13.96626 37025 ft 517 kts 138°
2026-05-05 15:49 46.11088 14.03952 37004 ft 516 kts 138°
2026-05-05 15:49 46.05984 14.11290 37017 ft 518 kts 138°
2026-05-05 15:50 46.00875 14.18618 37013 ft 518 kts 138°
2026-05-05 15:50 45.95770 14.25919 37015 ft 518 kts 139°
2026-05-05 15:51 45.90650 14.33222 37019 ft 518 kts 139°
2026-05-05 15:51 45.85515 14.40520 37016 ft 520 kts 138°
2026-05-05 15:52 45.80375 14.47813 37010 ft 520 kts 138°
2026-05-05 15:52 45.75228 14.55094 37008 ft 519 kts 138°
2026-05-05 15:53 45.70082 14.62355 37005 ft 520 kts 138°
2026-05-05 15:53 45.64923 14.69611 36996 ft 521 kts 138°
2026-05-05 15:54 45.59754 14.76864 36991 ft 521 kts 138°
2026-05-05 15:54 45.54607 14.84066 36993 ft 522 kts 138°
2026-05-05 15:55 45.49423 14.91298 36997 ft 521 kts 138°
2026-05-05 15:55 45.44189 14.98582 37000 ft 524 kts 138°
2026-05-05 15:56 45.38977 15.05815 36997 ft 523 kts 138°
2026-05-05 15:56 45.33763 15.13030 36987 ft 524 kts 138°
2026-05-05 15:57 45.28547 15.20231 36985 ft 523 kts 138°
2026-05-05 15:57 45.23320 15.27426 36985 ft 523 kts 138°
2026-05-05 15:58 45.18120 15.34565 36986 ft 523 kts 139°
2026-05-05 15:58 45.12889 15.41726 36991 ft 523 kts 139°
2026-05-05 15:59 45.07671 15.48853 36995 ft 523 kts 139°
2026-05-05 15:59 45.02406 15.56019 36995 ft 526 kts 139°
2026-05-05 16:00 44.97124 15.63191 37005 ft 526 kts 139°
2026-05-05 16:00 44.91841 15.70348 37014 ft 526 kts 139°
2026-05-05 16:01 44.86560 15.77483 37006 ft 525 kts 139°
2026-05-05 16:01 44.81257 15.84627 37022 ft 529 kts 139°
2026-05-05 16:02 44.75936 15.91778 37026 ft 529 kts 139°
2026-05-05 16:02 44.70609 15.98917 37032 ft 529 kts 139°
2026-05-05 16:03 44.65277 16.06041 37022 ft 529 kts 139°
2026-05-05 16:03 44.59939 16.13155 37029 ft 529 kts 139°
2026-05-05 16:04 44.54593 16.20264 37026 ft 530 kts 139°
2026-05-05 16:04 44.49243 16.27355 37033 ft 529 kts 139°
2026-05-05 16:05 44.43896 16.34427 37028 ft 530 kts 139°
2026-05-05 16:05 44.38530 16.41504 37027 ft 530 kts 139°
2026-05-05 16:06 44.33156 16.48571 37046 ft 530 kts 139°
2026-05-05 16:06 44.27784 16.55619 37048 ft 530 kts 139°
2026-05-05 16:07 44.22401 16.62660 37065 ft 531 kts 139°
2026-05-05 16:07 44.17001 16.69708 37064 ft 532 kts 139°
2026-05-05 16:08 44.11599 16.76739 37072 ft 532 kts 139°
2026-05-05 16:08 44.06225 16.83715 37071 ft 532 kts 140°
2026-05-05 16:09 44.00801 16.90737 37078 ft 534 kts 140°
2026-05-05 16:09 43.95364 16.97759 37072 ft 534 kts 140°
2026-05-05 16:10 43.90842 17.03584 37067 ft 534 kts 140°
2026-05-05 16:10 43.85399 17.10579 37066 ft 534 kts 140°
2026-05-05 16:11 43.79933 17.17585 37064 ft 535 kts 140°
2026-05-05 16:12 43.68997 17.31548 37071 ft 535 kts 140°
2026-05-05 16:13 43.55272 17.48970 37072 ft 537 kts 140°
2026-05-05 16:13 43.49763 17.55929 37068 ft 537 kts 140°
2026-05-05 16:14 43.38746 17.69797 37074 ft 537 kts 140°
2026-05-05 16:15 43.27720 17.83626 37104 ft 537 kts 140°
2026-05-05 16:16 43.16413 17.97008 37095 ft 539 kts 142°
2026-05-05 16:17 43.07901 18.07063 37090 ft 539 kts 142°
2026-05-05 16:18 42.99369 18.17059 37089 ft 539 kts 142°
2026-05-05 16:19 42.90814 18.27037 37089 ft 540 kts 142°
2026-05-05 16:19 42.82280 18.36957 37092 ft 540 kts 142°
2026-05-05 16:20 42.70844 18.50191 37096 ft 538 kts 142°
2026-05-05 16:22 42.56479 18.66720 37098 ft 542 kts 142°
2026-05-05 16:23 42.44964 18.79893 37082 ft 544 kts 142°
2026-05-05 16:23 42.36255 18.89814 37078 ft 545 kts 142°
2026-05-05 16:24 42.30451 18.96406 37067 ft 545 kts 142°
2026-05-05 16:25 42.21743 19.06263 37071 ft 545 kts 143°
2026-05-05 16:25 42.12986 19.16140 37098 ft 548 kts 143°
2026-05-05 16:26 42.01287 19.29280 37100 ft 548 kts 143°
2026-05-05 16:27 41.95422 19.35840 37092 ft 550 kts 143°
2026-05-05 16:27 41.89532 19.42414 37089 ft 550 kts 143°
2026-05-05 16:28 41.83646 19.48967 37071 ft 551 kts 143°
2026-05-05 16:28 41.77737 19.55529 37084 ft 551 kts 143°
2026-05-05 16:29 41.71867 19.62032 37082 ft 552 kts 143°
2026-05-05 16:29 41.65894 19.68631 37098 ft 554 kts 143°
2026-05-05 16:30 41.59950 19.75184 37098 ft 553 kts 143°
2026-05-05 16:30 41.54040 19.81682 37105 ft 555 kts 143°
2026-05-05 16:31 41.48079 19.88222 37103 ft 555 kts 143°
2026-05-05 16:31 41.42094 19.94771 37103 ft 557 kts 143°
2026-05-05 16:32 41.36096 20.01317 37100 ft 557 kts 143°
2026-05-05 16:32 41.30101 20.07845 37101 ft 557 kts 143°
2026-05-05 16:33 41.24102 20.14361 37114 ft 557 kts 143°
2026-05-05 16:33 41.18095 20.20869 37104 ft 558 kts 142°
2026-05-05 16:34 41.12073 20.27378 37101 ft 557 kts 142°
2026-05-05 16:34 41.06056 20.33866 37097 ft 557 kts 142°
2026-05-05 16:35 41.00041 20.40337 37106 ft 557 kts 143°
2026-05-05 16:35 40.94017 20.46800 37104 ft 558 kts 143°
2026-05-05 16:36 40.87982 20.53259 37099 ft 559 kts 142°
2026-05-05 16:36 40.81976 20.59676 37105 ft 559 kts 142°
2026-05-05 16:37 40.75932 20.66112 37075 ft 559 kts 142°
2026-05-05 16:37 40.69878 20.72544 37090 ft 559 kts 142°
2026-05-05 16:38 40.63824 20.78962 37088 ft 558 kts 143°
2026-05-05 16:38 40.57769 20.85366 37093 ft 559 kts 142°
2026-05-05 16:39 40.51717 20.91759 37093 ft 558 kts 142°
2026-05-05 16:39 40.45666 20.98162 37080 ft 559 kts 142°
2026-05-05 16:40 40.39695 21.04692 37073 ft 559 kts 141°
2026-05-05 16:40 40.33728 21.11243 37073 ft 559 kts 141°
2026-05-05 16:41 40.27757 21.17766 37065 ft 559 kts 141°
2026-05-05 16:41 40.21778 21.24277 37066 ft 559 kts 141°
2026-05-05 16:42 40.15797 21.30775 37065 ft 558 kts 141°
2026-05-05 16:42 40.09820 21.37250 37064 ft 558 kts 141°
2026-05-05 16:43 40.03830 21.43719 37060 ft 558 kts 141°
2026-05-05 16:43 39.97844 21.50167 37058 ft 558 kts 141°
2026-05-05 16:44 39.91846 21.56612 37040 ft 558 kts 141°
2026-05-05 16:44 39.85860 21.63028 37051 ft 558 kts 141°
2026-05-05 16:45 39.79888 21.69386 37053 ft 558 kts 142°
2026-05-05 16:45 39.73886 21.75782 37051 ft 558 kts 141°
2026-05-05 16:46 39.67884 21.82178 37035 ft 559 kts 141°
2026-05-05 16:46 39.61862 21.88586 37030 ft 559 kts 142°
2026-05-05 16:47 39.55836 21.94979 37022 ft 560 kts 142°
2026-05-05 16:47 39.49816 22.01349 37019 ft 559 kts 142°
2026-05-05 16:48 39.43794 22.07703 37012 ft 559 kts 142°
2026-05-05 16:48 39.37753 22.14060 37031 ft 560 kts 142°
2026-05-05 16:49 39.31700 22.20414 37011 ft 561 kts 142°
2026-05-05 16:49 39.25633 22.26770 37015 ft 561 kts 142°
2026-05-05 16:50 39.19566 22.33111 37021 ft 561 kts 142°
2026-05-05 16:50 39.13492 22.39444 37022 ft 561 kts 142°
2026-05-05 16:51 39.07425 22.45755 37041 ft 561 kts 142°
2026-05-05 16:51 39.01323 22.52088 37027 ft 564 kts 142°
2026-05-05 16:52 38.95214 22.58415 37037 ft 565 kts 142°
2026-05-05 16:52 38.89140 22.64693 37034 ft 563 kts 142°
2026-05-05 16:53 38.82978 22.71044 37036 ft 565 kts 142°
2026-05-05 16:53 38.76893 22.77302 37039 ft 565 kts 142°
2026-05-05 16:54 38.70757 22.83599 37039 ft 567 kts 142°
2026-05-05 16:54 38.64603 22.89900 37030 ft 566 kts 142°
2026-05-05 16:55 38.58441 22.96195 37026 ft 566 kts 142°
2026-05-05 16:55 38.52280 23.02475 37034 ft 567 kts 142°
2026-05-05 16:56 38.46114 23.08746 37035 ft 567 kts 142°
2026-05-05 16:56 38.39947 23.15003 37032 ft 566 kts 142°
2026-05-05 16:57 38.33773 23.21253 37033 ft 566 kts 142°
2026-05-05 16:57 38.27600 23.27489 37034 ft 566 kts 142°
2026-05-05 16:58 38.22474 23.32657 37034 ft 566 kts 142°
2026-05-05 16:58 38.16294 23.38874 37034 ft 566 kts 142°
2026-05-05 16:59 38.10117 23.45075 37052 ft 565 kts 142°
2026-05-05 16:59 38.03959 23.51243 37031 ft 564 kts 142°
2026-05-05 17:00 37.97795 23.57401 37049 ft 563 kts 142°
2026-05-05 17:00 37.91638 23.63541 37053 ft 564 kts 142°
2026-05-05 17:01 37.85482 23.69666 37053 ft 563 kts 142°
2026-05-05 17:01 37.79316 23.75788 37068 ft 563 kts 142°
2026-05-05 17:02 37.73158 23.81889 37052 ft 562 kts 143°
2026-05-05 17:02 37.67000 23.87976 37049 ft 562 kts 143°
2026-05-05 17:03 37.60909 23.93984 37040 ft 562 kts 143°
2026-05-05 17:03 37.54782 24.00015 37037 ft 562 kts 143°
2026-05-05 17:04 37.48600 24.06087 37024 ft 562 kts 143°
2026-05-05 17:04 37.42419 24.12144 37043 ft 563 kts 143°
2026-05-05 17:05 37.36234 24.18192 37047 ft 563 kts 143°
2026-05-05 17:05 37.30048 24.24229 37045 ft 563 kts 143°
2026-05-05 17:06 37.23851 24.30264 37047 ft 563 kts 143°
2026-05-05 17:06 37.17652 24.36287 37047 ft 564 kts 143°
2026-05-05 17:07 37.11448 24.42302 37053 ft 564 kts 143°
2026-05-05 17:07 37.05242 24.48307 37050 ft 563 kts 143°
2026-05-05 17:08 36.99037 24.54298 37057 ft 564 kts 143°
2026-05-05 17:08 36.92872 24.60238 37038 ft 563 kts 143°
2026-05-05 17:09 36.86656 24.66214 37055 ft 564 kts 143°
2026-05-05 17:09 36.80443 24.72174 37059 ft 564 kts 143°
2026-05-05 17:10 36.74208 24.78143 37060 ft 564 kts 143°
2026-05-05 17:10 36.67986 24.84088 37062 ft 564 kts 143°
2026-05-05 17:11 36.61759 24.90026 37063 ft 564 kts 143°
2026-05-05 17:11 36.55538 24.95944 37061 ft 563 kts 143°
2026-05-05 17:12 36.49305 25.01861 37072 ft 563 kts 143°
2026-05-05 17:12 36.43085 25.07755 37061 ft 563 kts 143°
2026-05-05 17:13 36.36851 25.13649 37066 ft 563 kts 143°
2026-05-05 17:13 36.30624 25.19524 37059 ft 563 kts 144°
2026-05-05 17:14 36.24385 25.25398 37063 ft 563 kts 144°
2026-05-05 17:14 36.18154 25.31254 37071 ft 563 kts 144°
2026-05-05 17:15 36.11914 25.37105 37071 ft 562 kts 144°
2026-05-05 17:15 36.05680 25.42939 37059 ft 562 kts 144°
2026-05-05 17:16 35.99443 25.48764 37069 ft 562 kts 144°
2026-05-05 17:16 35.93196 25.54586 37067 ft 562 kts 144°
2026-05-05 17:17 35.86996 25.60354 37069 ft 562 kts 144°
2026-05-05 17:17 35.80753 25.66148 37069 ft 561 kts 144°
2026-05-05 17:18 35.74514 25.71928 37065 ft 561 kts 144°
2026-05-05 17:18 35.68274 25.77698 37062 ft 561 kts 144°
2026-05-05 17:19 35.62028 25.83460 37083 ft 561 kts 144°
2026-05-05 17:19 35.56024 25.88989 37091 ft 561 kts 144°
2026-05-05 17:20 35.49733 25.94771 37091 ft 561 kts 144°
2026-05-05 17:20 35.43480 26.00507 37076 ft 561 kts 144°
2026-05-05 17:21 35.37220 26.06237 37075 ft 561 kts 144°
2026-05-05 17:22 35.27911 26.14738 37076 ft 561 kts 144°
2026-05-05 17:22 35.21692 26.20402 37073 ft 561 kts 144°
2026-05-05 17:23 35.15431 26.26095 37102 ft 562 kts 144°
2026-05-05 17:23 35.09153 26.31791 37079 ft 561 kts 144°
2026-05-05 17:24 35.02879 26.37473 37080 ft 562 kts 144°
2026-05-05 17:24 34.96600 26.43148 37069 ft 561 kts 144°
2026-05-05 17:25 34.90325 26.48808 37080 ft 561 kts 145°
2026-05-05 17:25 34.84058 26.54450 37072 ft 561 kts 145°
2026-05-05 17:26 34.77784 26.60088 37086 ft 561 kts 145°
2026-05-05 17:26 34.71495 26.65728 37083 ft 561 kts 145°
2026-05-05 17:27 34.65214 26.71350 37064 ft 560 kts 145°
2026-05-05 17:27 34.58939 26.76956 37068 ft 559 kts 145°
2026-05-05 17:28 34.52672 26.82544 37072 ft 559 kts 145°
2026-05-05 17:28 34.46399 26.88126 37088 ft 560 kts 145°
2026-05-05 17:29 34.40114 26.93709 37072 ft 559 kts 145°
2026-05-05 17:29 34.33839 26.99272 37049 ft 560 kts 146°
2026-05-05 17:30 34.27591 27.04801 37076 ft 560 kts 146°
2026-05-05 17:30 34.21262 27.10391 37078 ft 560 kts 146°
2026-05-05 17:31 34.15007 27.15909 37079 ft 560 kts 146°
2026-05-05 17:31 34.08716 27.21450 37078 ft 560 kts 146°
2026-05-05 17:32 34.02426 27.26981 37073 ft 559 kts 146°
2026-05-05 17:32 33.96051 27.32341 37078 ft 557 kts 151°
2026-05-05 17:33 33.89179 27.36549 37083 ft 553 kts 160°
2026-05-05 17:33 33.82119 27.40242 37083 ft 553 kts 159°
2026-05-05 17:34 33.75095 27.43969 37067 ft 552 kts 159°
2026-05-05 17:34 33.68082 27.47682 37098 ft 550 kts 159°
2026-05-05 17:35 33.61082 27.51375 37084 ft 549 kts 160°
2026-05-05 17:35 33.54091 27.55057 37086 ft 549 kts 160°
2026-05-05 17:36 33.47098 27.58733 37087 ft 548 kts 159°
2026-05-05 17:36 33.40164 27.62373 37088 ft 547 kts 160°
2026-05-05 17:37 33.33185 27.66029 37092 ft 547 kts 160°
2026-05-05 17:37 33.26207 27.69677 37091 ft 547 kts 160°
2026-05-05 17:38 33.19234 27.73318 37091 ft 546 kts 160°
2026-05-05 17:38 33.12274 27.76946 37094 ft 546 kts 160°
2026-05-05 17:39 33.05302 27.80573 37097 ft 546 kts 160°
2026-05-05 17:39 32.98340 27.84188 37091 ft 546 kts 160°
2026-05-05 17:40 32.91378 27.87798 37101 ft 545 kts 160°
2026-05-05 17:40 32.84424 27.91397 37098 ft 545 kts 160°
2026-05-05 17:41 32.77465 27.94992 37098 ft 545 kts 160°
2026-05-05 17:41 32.70503 27.98583 37101 ft 545 kts 160°
2026-05-05 17:42 32.63545 28.02166 37100 ft 545 kts 160°
2026-05-05 17:42 32.56582 28.05745 37101 ft 545 kts 160°
2026-05-05 17:43 32.49625 28.09316 37101 ft 544 kts 160°
2026-05-05 17:43 32.42679 28.12874 37102 ft 544 kts 160°
2026-05-05 17:44 32.35731 28.16427 37106 ft 544 kts 160°
2026-05-05 17:44 32.28788 28.19972 37107 ft 544 kts 160°
2026-05-05 17:45 32.21843 28.23512 37106 ft 544 kts 160°
2026-05-05 17:45 32.16070 28.26450 37109 ft 544 kts 160°
2026-05-05 17:46 32.09127 28.29979 37096 ft 542 kts 160°
2026-05-05 17:46 32.02205 28.33491 37114 ft 542 kts 160°
2026-05-05 17:47 31.95277 28.36999 37112 ft 542 kts 161°
2026-05-05 17:47 31.88364 28.40497 37121 ft 540 kts 161°
2026-05-05 17:48 31.81466 28.43976 37110 ft 539 kts 161°
2026-05-05 17:48 31.74571 28.47435 37113 ft 539 kts 161°
2026-05-05 17:49 31.67675 28.50890 37114 ft 539 kts 161°
2026-05-05 17:49 31.60831 28.54316 37117 ft 539 kts 161°
2026-05-05 17:50 31.53926 28.57758 37115 ft 539 kts 162°
2026-05-05 17:50 31.47022 28.61192 37115 ft 539 kts 162°
2026-05-05 17:51 31.40114 28.64624 37118 ft 539 kts 162°
2026-05-05 17:51 31.33206 28.68052 37116 ft 538 kts 162°
2026-05-05 17:52 31.26375 28.71436 37118 ft 535 kts 162°
2026-05-05 17:52 31.19511 28.74829 37119 ft 536 kts 162°
2026-05-05 17:53 31.12648 28.78216 37116 ft 536 kts 162°
2026-05-05 17:53 31.05787 28.81597 37114 ft 535 kts 162°
2026-05-05 17:54 30.98927 28.84974 37118 ft 534 kts 162°
2026-05-05 17:54 30.92074 28.88341 37115 ft 534 kts 162°
2026-05-05 17:55 30.85227 28.91699 37114 ft 534 kts 162°
2026-05-05 17:55 30.78377 28.95055 37114 ft 534 kts 162°
2026-05-05 17:56 30.71544 28.98398 37118 ft 532 kts 162°
2026-05-05 17:56 30.64757 29.01712 37104 ft 531 kts 162°
2026-05-05 17:57 30.57936 29.05037 37108 ft 531 kts 162°
2026-05-05 17:57 30.51280 29.08843 37110 ft 539 kts 152°
2026-05-05 17:58 30.45391 29.14339 37078 ft 548 kts 138°
2026-05-05 17:58 30.40135 29.20735 37107 ft 548 kts 137°
2026-05-05 17:59 30.34841 29.27083 37104 ft 546 kts 138°
2026-05-05 17:59 30.29557 29.33394 37104 ft 546 kts 138°
2026-05-05 18:00 30.24268 29.39707 37103 ft 547 kts 138°
2026-05-05 18:00 30.18979 29.46017 37106 ft 547 kts 138°
2026-05-05 18:01 30.13680 29.52327 37102 ft 546 kts 138°
2026-05-05 18:01 30.08423 29.58578 37094 ft 544 kts 139°
2026-05-05 18:02 30.03146 29.64840 37100 ft 544 kts 139°
2026-05-05 18:02 29.97862 29.71100 37099 ft 544 kts 139°
2026-05-05 18:03 29.92579 29.77350 37095 ft 545 kts 139°
2026-05-05 18:03 29.87287 29.83601 37090 ft 544 kts 139°
2026-05-05 18:04 29.81999 29.89836 37094 ft 544 kts 139°
2026-05-05 18:04 29.76712 29.96060 37093 ft 544 kts 139°
2026-05-05 18:05 29.71422 30.02278 37090 ft 544 kts 139°
2026-05-05 18:05 29.66128 30.08490 37088 ft 543 kts 139°
2026-05-05 18:06 29.60801 30.14732 37091 ft 543 kts 139°
2026-05-05 18:06 29.55549 30.20874 37086 ft 543 kts 139°
2026-05-05 18:07 29.50258 30.27054 37088 ft 543 kts 139°
2026-05-05 18:07 29.44959 30.33233 37090 ft 543 kts 139°
2026-05-05 18:08 29.39658 30.39405 37056 ft 542 kts 140°
2026-05-05 18:08 29.34431 30.45610 37076 ft 542 kts 139°
2026-05-05 18:09 29.29225 30.51854 37096 ft 542 kts 139°
2026-05-05 18:09 29.24005 30.58084 37090 ft 542 kts 139°
2026-05-05 18:10 29.18784 30.64295 37103 ft 541 kts 139°
2026-05-05 18:10 29.13561 30.70497 37097 ft 541 kts 139°
2026-05-05 18:11 29.08332 30.76697 37079 ft 541 kts 139°
2026-05-05 18:11 29.03108 30.82882 37083 ft 540 kts 139°
2026-05-05 18:12 28.97881 30.89061 37095 ft 540 kts 139°
2026-05-05 18:12 28.92656 30.95227 37091 ft 540 kts 139°
2026-05-05 18:13 28.87431 31.01386 37097 ft 539 kts 140°
2026-05-05 18:13 28.82211 31.07526 37097 ft 539 kts 140°
2026-05-05 18:14 28.76988 31.13662 37097 ft 540 kts 140°
2026-05-05 18:14 28.71759 31.19796 37091 ft 539 kts 140°
2026-05-05 18:15 28.66595 31.26009 37083 ft 540 kts 137°
2026-05-05 18:15 28.61595 31.32399 37084 ft 541 kts 137°
2026-05-05 18:16 28.56573 31.38766 37092 ft 541 kts 138°
2026-05-05 18:16 28.51534 31.45103 37111 ft 541 kts 138°
2026-05-05 18:17 28.46481 31.51439 37116 ft 540 kts 138°
2026-05-05 18:17 28.41438 31.57753 37107 ft 540 kts 138°
2026-05-05 18:18 28.36424 31.64021 37090 ft 540 kts 138°
2026-05-05 18:18 28.31374 31.70325 37050 ft 539 kts 138°
2026-05-05 18:19 28.26317 31.76629 37098 ft 539 kts 138°
2026-05-05 18:19 28.21262 31.82922 37104 ft 539 kts 138°
2026-05-05 18:20 28.16214 31.89194 37104 ft 539 kts 139°
2026-05-05 18:20 28.11156 31.95469 37102 ft 539 kts 139°
2026-05-05 18:21 28.06100 32.01738 37102 ft 539 kts 137°
2026-05-05 18:21 28.01638 32.08653 37082 ft 550 kts 125°
2026-05-05 18:22 27.97986 32.16271 37087 ft 551 kts 123°
2026-05-05 18:22 27.94317 32.23892 37073 ft 551 kts 124°
2026-05-05 18:23 27.90647 32.31490 37049 ft 550 kts 124°
2026-05-05 18:23 27.86964 32.39101 37039 ft 552 kts 124°
2026-05-05 18:24 27.83280 32.46701 37031 ft 552 kts 124°
2026-05-05 18:24 27.79588 32.54306 37025 ft 552 kts 124°
2026-05-05 18:25 27.75899 32.61891 37028 ft 552 kts 124°
2026-05-05 18:25 27.72218 32.69443 37023 ft 552 kts 124°
2026-05-05 18:26 27.68514 32.77033 37019 ft 552 kts 125°
2026-05-05 18:26 27.64805 32.84617 37014 ft 552 kts 125°
2026-05-05 18:27 27.61087 32.92207 37009 ft 553 kts 125°
2026-05-05 18:27 27.57367 32.99786 37016 ft 553 kts 125°
2026-05-05 18:28 27.51775 33.11157 37015 ft 553 kts 125°
2026-05-05 18:28 27.48048 33.18720 37023 ft 552 kts 125°
2026-05-05 18:29 27.44313 33.26282 37004 ft 551 kts 126°
2026-05-05 18:29 27.40582 33.33821 36998 ft 551 kts 126°
2026-05-05 18:30 27.36843 33.41368 36990 ft 551 kts 126°
2026-05-05 18:30 27.33098 33.48907 36997 ft 552 kts 126°
2026-05-05 18:31 27.29373 33.56396 36999 ft 552 kts 126°
2026-05-05 18:31 27.25619 33.63930 36999 ft 552 kts 126°
2026-05-05 18:32 27.21869 33.71444 36991 ft 550 kts 126°
2026-05-05 18:32 27.18733 33.77723 36993 ft 550 kts 125°
2026-05-05 18:33 27.15634 33.85625 36992 ft 559 kts 117°
2026-05-05 18:33 27.12770 33.93734 36992 ft 559 kts 118°
2026-05-05 18:34 27.09885 34.01833 36988 ft 559 kts 118°
2026-05-05 18:34 27.06996 34.09924 36981 ft 559 kts 118°
2026-05-05 18:35 27.04104 34.18012 36977 ft 559 kts 118°
2026-05-05 18:35 27.01200 34.26113 36974 ft 560 kts 118°
2026-05-05 18:36 26.98289 34.34217 36972 ft 560 kts 118°
2026-05-05 18:36 26.95374 34.42317 36971 ft 560 kts 118°
2026-05-05 18:37 26.92452 34.50415 36967 ft 562 kts 119°
2026-05-05 18:37 26.89522 34.58520 36966 ft 561 kts 119°
2026-05-05 18:38 26.86585 34.66628 36967 ft 562 kts 119°
2026-05-05 18:38 26.83645 34.74728 36949 ft 561 kts 119°
2026-05-05 18:39 26.80699 34.82828 36964 ft 561 kts 119°
2026-05-05 18:39 26.77751 34.90915 36963 ft 561 kts 119°
2026-05-05 18:40 26.74830 34.98915 36958 ft 561 kts 119°
2026-05-05 18:40 26.71877 35.06991 36958 ft 561 kts 120°
2026-05-05 18:41 26.68920 35.15059 36962 ft 561 kts 120°
2026-05-05 18:41 26.65972 35.23089 36963 ft 561 kts 120°
2026-05-05 18:42 26.63002 35.31160 36957 ft 561 kts 120°
2026-05-05 18:42 26.60033 35.39212 36952 ft 561 kts 120°
2026-05-05 18:43 26.57056 35.47270 36950 ft 561 kts 120°
2026-05-05 18:43 26.54033 35.55297 36944 ft 560 kts 121°
2026-05-05 18:44 26.50961 35.63299 36942 ft 560 kts 121°
2026-05-05 18:44 26.47896 35.71295 36938 ft 560 kts 121°
2026-05-05 18:45 26.44829 35.79295 36921 ft 561 kts 121°
2026-05-05 18:45 26.41762 35.87285 36937 ft 561 kts 121°
2026-05-05 18:46 26.38685 35.95280 36936 ft 560 kts 121°
2026-05-05 18:46 26.35608 36.03260 36930 ft 560 kts 121°
2026-05-05 18:47 26.32527 36.11235 36931 ft 560 kts 121°
2026-05-05 18:47 26.29441 36.19208 36935 ft 560 kts 121°
2026-05-05 18:48 26.26347 36.27185 36922 ft 561 kts 121°
2026-05-05 18:48 26.23252 36.35149 36937 ft 561 kts 121°
2026-05-05 18:49 26.20148 36.43123 36939 ft 561 kts 121°
2026-05-05 18:49 26.16886 36.50976 36923 ft 554 kts 127°
2026-05-05 18:50 26.13160 36.58488 36922 ft 554 kts 127°
2026-05-05 18:50 26.09459 36.66010 36922 ft 554 kts 127°
2026-05-05 18:51 26.05751 36.73527 36928 ft 554 kts 127°
2026-05-05 18:51 26.02038 36.81037 36930 ft 554 kts 127°
2026-05-05 18:52 25.98335 36.88515 36934 ft 554 kts 127°
2026-05-05 18:52 25.94613 36.96017 36936 ft 555 kts 127°
2026-05-05 18:53 25.90911 37.03467 36938 ft 553 kts 127°
2026-05-05 18:53 25.87190 37.10943 36940 ft 553 kts 127°
2026-05-05 18:54 25.83462 37.18419 36942 ft 553 kts 127°
2026-05-05 18:54 25.79734 37.25886 36939 ft 553 kts 127°
2026-05-05 18:55 25.76010 37.33364 36951 ft 554 kts 127°
2026-05-05 18:55 25.72283 37.40854 36949 ft 555 kts 127°
2026-05-05 18:56 25.68553 37.48337 36951 ft 555 kts 127°
2026-05-05 18:56 25.64824 37.55794 36958 ft 556 kts 127°
2026-05-05 18:57 25.61080 37.63279 36950 ft 555 kts 127°
2026-05-05 18:57 25.57328 37.70757 36954 ft 556 kts 127°
2026-05-05 18:58 25.53570 37.78240 36954 ft 555 kts 127°
2026-05-05 18:58 25.49815 37.85705 36944 ft 555 kts 127°
2026-05-05 18:59 25.46052 37.93172 36911 ft 555 kts 127°
2026-05-05 18:59 25.42289 38.00628 36910 ft 553 kts 127°
2026-05-05 19:00 25.38532 38.08059 36913 ft 553 kts 128°
2026-05-05 19:00 25.34774 38.15480 36912 ft 552 kts 128°
2026-05-05 19:01 25.31023 38.22884 36910 ft 552 kts 128°
2026-05-05 19:01 25.27271 38.30266 36906 ft 551 kts 128°
2026-05-05 19:02 25.23535 38.37605 36908 ft 551 kts 128°
2026-05-05 19:02 25.19775 38.44978 36915 ft 551 kts 128°
2026-05-05 19:03 25.16012 38.52354 36921 ft 552 kts 128°
2026-05-05 19:03 25.12240 38.59723 36926 ft 551 kts 128°
2026-05-05 19:04 25.08445 38.67121 36917 ft 551 kts 128°
2026-05-05 19:04 25.04704 38.74403 36926 ft 550 kts 128°
2026-05-05 19:05 25.00905 38.81786 36926 ft 550 kts 128°
2026-05-05 19:05 24.97141 38.89086 36934 ft 552 kts 128°
2026-05-05 19:06 24.93349 38.96432 36948 ft 552 kts 128°
2026-05-05 19:06 24.89545 39.03782 36946 ft 552 kts 128°
2026-05-05 19:07 24.85741 39.11121 36946 ft 551 kts 128°
2026-05-05 19:07 24.81935 39.18450 36944 ft 552 kts 128°
2026-05-05 19:08 24.78121 39.25788 36948 ft 552 kts 128°
2026-05-05 19:08 24.74307 39.33117 36951 ft 552 kts 128°
2026-05-05 19:09 24.70493 39.40436 36956 ft 551 kts 128°
2026-05-05 19:09 24.66675 39.47749 36955 ft 552 kts 128°
2026-05-05 19:10 24.62849 39.55063 36948 ft 551 kts 128°
2026-05-05 19:10 24.59019 39.62375 36964 ft 553 kts 128°
2026-05-05 19:11 24.55653 39.70057 36963 ft 569 kts 116°
2026-05-05 19:11 24.53944 39.78612 36966 ft 582 kts 101°
2026-05-05 19:12 24.53134 39.87454 36956 ft 582 kts 101°
2026-05-05 19:12 24.52282 39.96278 36954 ft 581 kts 102°
2026-05-05 19:13 24.51421 40.05120 36944 ft 581 kts 101°
2026-05-05 19:13 24.50561 40.13923 36961 ft 580 kts 101°
2026-05-05 19:14 24.49701 40.22666 36951 ft 580 kts 102°
2026-05-05 19:14 24.48834 40.31449 36954 ft 577 kts 102°
2026-05-05 19:15 24.47962 40.40210 36954 ft 578 kts 102°
2026-05-05 19:15 24.47085 40.48978 36947 ft 577 kts 102°
2026-05-05 19:16 24.46205 40.57721 36964 ft 577 kts 102°
2026-05-05 19:16 24.45319 40.66475 36962 ft 577 kts 102°
2026-05-05 19:17 24.44426 40.75224 36976 ft 578 kts 102°
2026-05-05 19:17 24.43525 40.83995 36967 ft 578 kts 102°
2026-05-05 19:18 24.42622 40.92754 36955 ft 577 kts 102°
2026-05-05 19:18 24.41714 41.01502 36972 ft 577 kts 102°
2026-05-05 19:19 24.40801 41.10248 36972 ft 577 kts 102°
2026-05-05 19:19 24.39888 41.18977 36975 ft 575 kts 102°
2026-05-05 19:20 24.39124 41.26229 36979 ft 575 kts 102°
2026-05-05 19:20 24.38201 41.34944 36969 ft 575 kts 102°
2026-05-05 19:21 24.37277 41.43632 36977 ft 573 kts 102°
2026-05-05 19:21 24.36347 41.52318 36984 ft 573 kts 102°
2026-05-05 19:22 24.35413 41.60997 36977 ft 572 kts 102°
2026-05-05 19:22 24.34475 41.69670 36968 ft 572 kts 102°
2026-05-05 19:23 24.33532 41.78336 36969 ft 572 kts 102°
2026-05-05 19:23 24.31955 41.86813 36976 ft 564 kts 113°
2026-05-05 19:24 24.29758 41.95068 36983 ft 564 kts 112°
2026-05-05 19:24 24.27590 42.03334 36969 ft 564 kts 112°
2026-05-05 19:25 24.25414 42.11594 36973 ft 564 kts 112°
2026-05-05 19:25 24.23233 42.19844 36954 ft 564 kts 112°
2026-05-05 19:26 24.21051 42.28080 36973 ft 562 kts 112°
2026-05-05 19:26 24.18864 42.36308 36978 ft 563 kts 112°
2026-05-05 19:27 24.16675 42.44528 36976 ft 562 kts 112°
2026-05-05 19:27 24.14484 42.52736 36978 ft 562 kts 112°
2026-05-05 19:28 24.12287 42.60946 36977 ft 562 kts 112°
2026-05-05 19:28 24.10088 42.69145 36980 ft 561 kts 112°
2026-05-05 19:29 24.07886 42.77336 36987 ft 561 kts 112°
2026-05-05 19:29 24.05693 42.85474 36992 ft 561 kts 112°
2026-05-05 19:30 24.03483 42.93655 36992 ft 561 kts 112°
2026-05-05 19:30 24.01265 43.01846 36993 ft 561 kts 112°
2026-05-05 19:31 23.99044 43.10027 36993 ft 561 kts 112°
2026-05-05 19:31 23.96819 43.18207 36990 ft 561 kts 112°
2026-05-05 19:32 23.94592 43.26375 36990 ft 561 kts 112°
2026-05-05 19:32 23.92360 43.34543 36988 ft 560 kts 112°
2026-05-05 19:33 23.90123 43.42711 36987 ft 561 kts 112°
2026-05-05 19:33 23.87885 43.50865 36982 ft 560 kts 112°
2026-05-05 19:34 23.85641 43.59019 36978 ft 560 kts 112°
2026-05-05 19:35 23.82272 43.71231 36964 ft 559 kts 112°
2026-05-05 19:35 23.80022 43.79361 36955 ft 559 kts 112°
2026-05-05 19:36 23.77854 43.87522 36948 ft 562 kts 107°
2026-05-05 19:36 23.76850 43.96030 36947 ft 568 kts 98°
2026-05-05 19:37 23.76236 44.04554 36936 ft 567 kts 98°
2026-05-05 19:37 23.75592 44.13127 36938 ft 566 kts 98°
2026-05-05 19:38 23.74942 44.21731 36944 ft 569 kts 99°
2026-05-05 19:38 23.74292 44.30317 36945 ft 567 kts 98°
2026-05-05 19:39 23.73637 44.38896 36944 ft 567 kts 98°
2026-05-05 19:39 23.72978 44.47469 36946 ft 565 kts 98°
2026-05-05 19:40 23.72315 44.56016 36944 ft 566 kts 99°
2026-05-05 19:40 23.71648 44.64571 36937 ft 564 kts 99°
2026-05-05 19:41 23.70978 44.73099 36941 ft 564 kts 99°
2026-05-05 19:41 23.70303 44.81617 36939 ft 564 kts 99°
2026-05-05 19:42 23.69624 44.90143 36937 ft 564 kts 99°
2026-05-05 19:42 23.68939 44.98670 36934 ft 566 kts 99°
2026-05-05 19:43 23.68249 45.07204 36931 ft 562 kts 99°
2026-05-05 19:43 23.67559 45.15692 36923 ft 562 kts 99°
2026-05-05 19:44 23.66860 45.24194 36917 ft 563 kts 99°
2026-05-05 19:44 23.66158 45.32708 36914 ft 563 kts 99°
2026-05-05 19:45 23.65452 45.41211 36909 ft 564 kts 99°
2026-05-05 19:45 23.64741 45.49720 36903 ft 564 kts 99°
2026-05-05 19:46 23.64024 45.58233 36890 ft 561 kts 99°
2026-05-05 19:46 23.63308 45.66697 36891 ft 560 kts 99°
2026-05-05 19:47 23.62590 45.75095 36887 ft 560 kts 99°
2026-05-05 19:47 23.61865 45.83539 36886 ft 559 kts 99°
2026-05-05 19:48 23.61135 45.91976 36881 ft 559 kts 99°
2026-05-05 19:48 23.60401 46.00411 36881 ft 559 kts 99°
2026-05-05 19:49 23.59661 46.08852 36887 ft 559 kts 99°
2026-05-05 19:49 23.58918 46.17288 36896 ft 559 kts 99°
2026-05-05 19:50 23.58169 46.25737 36896 ft 560 kts 99°
2026-05-05 19:50 23.57415 46.34185 36896 ft 559 kts 99°
2026-05-05 19:51 23.56655 46.42637 36903 ft 561 kts 99°
2026-05-05 19:51 23.55891 46.51093 36899 ft 560 kts 99°
2026-05-05 19:52 23.55124 46.59542 36869 ft 560 kts 99°
2026-05-05 19:52 23.54357 46.67948 36880 ft 557 kts 99°
2026-05-05 19:53 23.53584 46.76354 36884 ft 558 kts 99°
2026-05-05 19:53 23.52806 46.84758 36867 ft 557 kts 99°
2026-05-05 19:54 23.52023 46.93162 36880 ft 557 kts 99°
2026-05-05 19:54 23.51237 47.01556 36859 ft 558 kts 99°
2026-05-05 19:55 23.50445 47.09972 36853 ft 558 kts 99°
2026-05-05 19:55 23.49651 47.18359 36843 ft 553 kts 99°
2026-05-05 19:56 23.48858 47.26683 36846 ft 553 kts 99°
2026-05-05 19:56 23.48058 47.35031 36839 ft 554 kts 99°
2026-05-05 19:57 23.47254 47.43369 36839 ft 554 kts 99°
2026-05-05 19:57 23.46447 47.51705 36830 ft 554 kts 99°
2026-05-05 19:58 23.45635 47.60041 36819 ft 553 kts 99°
2026-05-05 19:58 23.44819 47.68372 36811 ft 553 kts 99°
2026-05-05 19:59 23.44003 47.76661 36822 ft 550 kts 99°
2026-05-05 19:59 23.43182 47.84949 36811 ft 549 kts 99°
2026-05-05 20:00 23.42360 47.93209 36810 ft 549 kts 99°
2026-05-05 20:00 23.41531 48.01482 36803 ft 549 kts 99°
2026-05-05 20:01 23.40700 48.09751 36800 ft 549 kts 99°
2026-05-05 20:01 23.39865 48.18005 36791 ft 549 kts 99°
2026-05-05 20:02 23.39030 48.26211 36790 ft 547 kts 99°
2026-05-05 20:02 23.38207 48.34484 36790 ft 547 kts 97°
2026-05-05 20:03 23.37877 48.42761 36793 ft 548 kts 95°
2026-05-05 20:03 23.37545 48.51052 36790 ft 549 kts 95°
2026-05-05 20:04 23.37208 48.59296 36792 ft 549 kts 95°
2026-05-05 20:04 23.36862 48.67649 36786 ft 548 kts 95°
2026-05-05 20:05 23.36517 48.75875 36792 ft 548 kts 95°
2026-05-05 20:05 23.36166 48.84159 36790 ft 548 kts 95°
2026-05-05 20:06 23.35810 48.92444 36781 ft 547 kts 95°
2026-05-05 20:06 23.35450 49.00703 36783 ft 547 kts 95°
2026-05-05 20:07 23.35041 49.07559 36784 ft 546 kts 99°
2026-05-05 20:07 23.33864 49.15723 36780 ft 546 kts 101°
2026-05-05 20:08 23.32694 49.23900 36781 ft 546 kts 101°
2026-05-05 20:08 23.31524 49.32068 36786 ft 548 kts 101°
2026-05-05 20:09 23.30338 49.40274 36777 ft 549 kts 101°
2026-05-05 20:09 23.29148 49.48477 36774 ft 547 kts 101°
2026-05-05 20:10 23.27960 49.56633 36777 ft 546 kts 101°
2026-05-05 20:10 23.26766 49.64797 36782 ft 547 kts 101°
2026-05-05 20:11 23.25568 49.72958 36780 ft 546 kts 101°
2026-05-05 20:11 23.24367 49.81113 36781 ft 546 kts 101°
2026-05-05 20:12 23.23170 49.89206 36782 ft 546 kts 101°
2026-05-05 20:12 23.21960 49.97359 36782 ft 546 kts 101°
2026-05-05 20:13 23.20752 50.05473 36782 ft 542 kts 101°
2026-05-05 20:13 23.19541 50.13566 36785 ft 543 kts 101°
2026-05-05 20:14 23.18327 50.21659 36783 ft 543 kts 101°
2026-05-05 20:14 23.17106 50.29769 36786 ft 543 kts 101°
2026-05-05 20:15 23.15882 50.37870 36788 ft 543 kts 101°
2026-05-05 20:15 23.14654 50.45968 36788 ft 544 kts 101°
2026-05-05 20:16 23.13419 50.54080 36788 ft 544 kts 102°
2026-05-05 20:16 23.12186 50.62153 36789 ft 541 kts 101°
2026-05-05 20:17 23.10950 50.70221 36790 ft 542 kts 101°
2026-05-05 20:17 23.09708 50.78293 36784 ft 542 kts 102°
2026-05-05 20:18 23.08462 50.86370 36788 ft 542 kts 102°
2026-05-05 20:18 23.07211 50.94443 36789 ft 542 kts 102°
2026-05-05 20:19 23.05956 51.02520 36789 ft 543 kts 102°
2026-05-05 20:19 23.04697 51.10594 36768 ft 542 kts 102°
2026-05-05 20:20 23.03439 51.18637 36790 ft 540 kts 102°
2026-05-05 20:20 23.02178 51.26667 36782 ft 540 kts 102°
2026-05-05 20:21 23.00912 51.34700 36787 ft 540 kts 102°
2026-05-05 20:21 22.99641 51.42741 36786 ft 540 kts 102°
2026-05-05 20:22 22.98375 51.50723 36784 ft 540 kts 102°
2026-05-05 20:22 22.97096 51.58760 36778 ft 540 kts 102°
2026-05-05 20:23 22.95805 51.66845 36782 ft 541 kts 102°
2026-05-05 20:23 22.94526 51.74823 36787 ft 540 kts 102°
2026-05-05 20:24 22.93235 51.82855 36785 ft 541 kts 102°
2026-05-05 20:24 22.91939 51.90895 36780 ft 541 kts 102°
2026-05-05 20:25 22.90638 51.98930 36787 ft 541 kts 102°
2026-05-05 20:25 22.89333 52.06969 36780 ft 542 kts 102°
2026-05-05 20:26 22.88042 52.14908 36779 ft 525 kts 102°
2026-05-05 20:26 22.86774 52.22663 36784 ft 523 kts 102°
2026-05-05 20:27 22.85501 52.30422 36780 ft 522 kts 102°
2026-05-05 20:27 22.84226 52.38177 36787 ft 522 kts 102°
2026-05-05 20:28 22.82950 52.45931 36777 ft 523 kts 102°
2026-05-05 20:28 22.82305 52.53787 36781 ft 525 kts 93°
2026-05-05 20:29 22.82125 52.61705 36776 ft 525 kts 93°
2026-05-05 20:29 22.81921 52.69622 36772 ft 525 kts 93°
2026-05-05 20:30 22.81713 52.77487 36778 ft 526 kts 93°
2026-05-05 20:30 22.81500 52.85403 36779 ft 526 kts 93°
2026-05-05 20:31 22.81283 52.93326 36771 ft 526 kts 93°
2026-05-05 20:31 22.81062 53.01252 36780 ft 526 kts 93°
2026-05-05 20:32 22.80838 53.09175 36792 ft 526 kts 93°
2026-05-05 20:32 22.80610 53.17089 36792 ft 525 kts 93°
2026-05-05 20:33 22.80378 53.24999 36783 ft 525 kts 94°
2026-05-05 20:33 22.80141 53.32924 36782 ft 525 kts 94°
2026-05-05 20:34 22.79902 53.40830 36776 ft 525 kts 94°
2026-05-05 20:34 22.79660 53.48690 36784 ft 525 kts 94°
2026-05-05 20:35 22.79411 53.56611 36782 ft 525 kts 94°
2026-05-05 20:35 22.79160 53.64512 36784 ft 525 kts 94°
2026-05-05 20:36 22.78906 53.72417 36780 ft 525 kts 94°
2026-05-05 20:36 22.78645 53.80330 36771 ft 525 kts 94°
2026-05-05 20:37 22.78383 53.88232 36762 ft 525 kts 94°
2026-05-05 20:37 22.78152 53.96140 36787 ft 525 kts 90°
2026-05-05 20:38 22.78917 54.04016 36786 ft 527 kts 79°
2026-05-05 20:38 22.80518 54.11772 36781 ft 527 kts 78°
2026-05-05 20:39 22.82090 54.19539 36775 ft 527 kts 78°
2026-05-05 20:39 22.83651 54.27257 36780 ft 527 kts 78°
2026-05-05 20:40 22.85219 54.35016 36784 ft 527 kts 78°
2026-05-05 20:40 22.86785 54.42783 36783 ft 527 kts 78°
2026-05-05 20:41 22.88347 54.50550 36777 ft 527 kts 78°
2026-05-05 20:41 22.89906 54.58319 36773 ft 527 kts 78°
2026-05-05 20:42 22.91459 54.66086 36772 ft 527 kts 78°
2026-05-05 20:42 22.93010 54.73857 36774 ft 527 kts 78°
2026-05-05 20:43 22.94555 54.81623 36762 ft 527 kts 78°
2026-05-05 20:43 22.96100 54.89405 36760 ft 527 kts 78°
2026-05-05 20:44 22.97640 54.97184 36768 ft 527 kts 78°
2026-05-05 20:44 22.99176 55.04964 36779 ft 527 kts 78°
2026-05-05 20:45 23.02173 55.16397 36780 ft 527 kts 61°
2026-05-05 20:45 23.04147 55.19748 36782 ft 526 kts 50°
2026-05-05 20:45 23.06619 55.22652 36788 ft 524 kts 40°
2026-05-05 20:46 23.12712 55.26853 36792 ft 518 kts 19°
2026-05-05 20:46 23.19583 55.29050 36781 ft 514 kts 12°
2026-05-05 20:47 23.26451 55.31074 36783 ft 515 kts 12°
2026-05-05 20:47 23.33367 55.33119 36787 ft 515 kts 12°
2026-05-05 20:48 23.40283 55.35162 36801 ft 515 kts 12°
2026-05-05 20:48 23.47211 55.37211 36798 ft 516 kts 12°
2026-05-05 20:49 23.54136 55.39259 36800 ft 516 kts 12°
2026-05-05 20:49 23.61064 55.41309 36800 ft 516 kts 12°
2026-05-05 20:50 23.66820 55.43014 36797 ft 516 kts 12°
2026-05-05 20:50 23.74923 55.45417 36801 ft 516 kts 12°
2026-05-05 20:51 23.81817 55.47464 36805 ft 516 kts 12°
2026-05-05 20:51 23.88723 55.49517 36594 ft 511 kts 12°
2026-05-05 20:52 23.92145 55.50534 36354 ft 508 kts 12°
2026-05-05 20:52 23.95565 55.51551 36103 ft 509 kts 12°
2026-05-05 20:52 23.98911 55.52859 35527 ft 514 kts 21°
2026-05-05 20:52 24.02077 55.54712 34724 ft 520 kts 30°
2026-05-05 20:53 24.05009 55.57085 33746 ft 528 kts 39°
2026-05-05 20:53 24.07731 55.59812 32699 ft 533 kts 40°
2026-05-05 20:53 24.10460 55.62534 31994 ft 528 kts 40°
2026-05-05 20:53 24.13159 55.65208 31558 ft 518 kts 40°
2026-05-05 20:54 24.15805 55.67828 31092 ft 509 kts 40°
2026-05-05 20:54 24.18435 55.70433 30210 ft 510 kts 40°
2026-05-05 20:54 24.21055 55.73030 29536 ft 506 kts 40°
2026-05-05 20:54 24.23633 55.75591 29094 ft 495 kts 40°
2026-05-05 20:55 24.26173 55.78116 28414 ft 490 kts 40°
2026-05-05 20:55 24.28698 55.80625 27570 ft 489 kts 40°
2026-05-05 20:55 24.31201 55.83115 26995 ft 483 kts 40°
2026-05-05 20:55 24.33665 55.85569 26578 ft 472 kts 40°
2026-05-05 20:56 24.36081 55.87977 25841 ft 470 kts 40°
2026-05-05 20:56 24.37689 55.89578 25297 ft 471 kts 40°
2026-05-05 20:56 24.40103 55.91983 24750 ft 465 kts 40°
2026-05-05 20:56 24.42470 55.94344 24300 ft 456 kts 40°
2026-05-05 20:57 24.45603 55.97469 23272 ft 456 kts 40°
2026-05-05 20:57 24.47150 55.99012 22865 ft 452 kts 40°
2026-05-05 20:57 24.49450 56.01310 22403 ft 441 kts 41°
2026-05-05 20:57 24.52430 56.04287 21617 ft 433 kts 41°
2026-05-05 20:58 24.54642 56.06499 21014 ft 428 kts 41°
2026-05-05 20:58 24.56124 56.07985 20614 ft 424 kts 41°
2026-05-05 20:58 24.58314 56.10128 20021 ft 419 kts 36°
2026-05-05 20:58 24.60731 56.11763 19452 ft 412 kts 23°
2026-05-05 20:59 24.63459 56.12779 18865 ft 406 kts 11°
2026-05-05 20:59 24.66230 56.13274 18293 ft 402 kts
2026-05-05 20:59 24.68985 56.13765 17674 ft 398 kts
2026-05-05 20:59 24.71698 56.14269 17116 ft 392 kts
2026-05-05 21:00 24.74367 56.14767 16559 ft 387 kts
2026-05-05 21:00 24.77012 56.15223 15992 ft 382 kts
2026-05-05 21:00 24.79641 56.15124 15443 ft 377 kts 350°
2026-05-05 21:00 24.82115 56.14367 14917 ft 373 kts 337°
2026-05-05 21:01 24.84463 56.13186 14394 ft 369 kts 335°
2026-05-05 21:01 24.86814 56.12018 14028 ft 364 kts 335°
2026-05-05 21:01 24.89126 56.10881 13499 ft 363 kts 335°
2026-05-05 21:01 24.91382 56.09776 13115 ft 355 kts 335°
2026-05-05 21:02 24.93588 56.08695 12862 ft 337 kts 335°
2026-05-05 21:02 24.95668 56.07660 12688 ft 318 kts 332°
2026-05-05 21:02 24.97485 56.06400 12530 ft 300 kts 320°
2026-05-05 21:02 24.98979 56.04891 12255 ft 286 kts 311°
2026-05-05 21:03 25.00300 56.03242 11647 ft 288 kts 310°
2026-05-05 21:03 25.01617 56.01618 11305 ft 279 kts 310°
2026-05-05 21:03 25.02911 56.00036 11060 ft 279 kts 310°
2026-05-05 21:03 25.04215 55.98443 10839 ft 280 kts 311°
2026-05-05 21:04 25.05520 55.96848 10605 ft 280 kts 311°
2026-05-05 21:04 25.06822 55.95255 10428 ft 278 kts 310°
2026-05-05 21:04 25.08114 55.93673 10323 ft 278 kts 310°
2026-05-05 21:04 25.09409 55.92083 10287 ft 280 kts 310°
2026-05-05 21:05 25.10711 55.90485 10086 ft 281 kts 310°
2026-05-05 21:05 25.12012 55.88888 9899 ft 279 kts 310°
2026-05-05 21:05 25.13305 55.87301 9655 ft 276 kts 311°
2026-05-05 21:05 25.14579 55.85736 9395 ft 273 kts 311°
2026-05-05 21:06 25.15805 55.84137 9166 ft 271 kts 304°
2026-05-05 21:06 25.16798 55.82365 8938 ft 271 kts 300°
2026-05-05 21:06 25.17774 55.80592 8709 ft 269 kts 300°
2026-05-05 21:06 25.18732 55.78878 8624 ft 259 kts 301°
2026-05-05 21:07 25.19669 55.77204 8546 ft 249 kts 301°
2026-05-05 21:07 25.20576 55.75580 8262 ft 249 kts 301°
2026-05-05 21:07 25.21487 55.73946 7965 ft 249 kts 301°
2026-05-05 21:07 25.22391 55.72320 7702 ft 248 kts 301°
2026-05-05 21:08 25.23294 55.70698 7466 ft 247 kts 301°
2026-05-05 21:08 25.24195 55.69086 7210 ft 246 kts 301°
2026-05-05 21:08 25.25088 55.67490 6940 ft 246 kts 301°
2026-05-05 21:08 25.25989 55.65878 6736 ft 242 kts 301°
2026-05-05 21:09 25.26867 55.64307 6548 ft 240 kts 301°
2026-05-05 21:09 25.27739 55.62739 6328 ft 238 kts 301°
2026-05-05 21:09 25.28607 55.61179 6105 ft 238 kts 301°
2026-05-05 21:09 25.29339 55.59558 5915 ft 236 kts 282°
2026-05-05 21:10 25.29294 55.57760 5714 ft 237 kts 251°
2026-05-05 21:10 25.28407 55.56247 5514 ft 237 kts 220°
2026-05-05 21:10 25.27015 55.55260 5313 ft 238 kts 210°
2026-05-05 21:10 25.25487 55.54568 5098 ft 239 kts 187°
2026-05-05 21:11 25.23845 55.54783 4913 ft 239 kts 155°
2026-05-05 21:11 25.22556 55.55888 4713 ft 237 kts 124°
2026-05-05 21:11 25.21712 55.57449 4515 ft 236 kts 118°
2026-05-05 21:11 25.20902 55.59025 4316 ft 235 kts 119°
2026-05-05 21:12 25.20081 55.60579 4096 ft 234 kts 120°
2026-05-05 21:12 25.19258 55.62095 3915 ft 233 kts 120°
2026-05-05 21:12 25.18408 55.63637 3710 ft 231 kts 121°
2026-05-05 21:12 25.17577 55.65132 3520 ft 231 kts 121°
2026-05-05 21:13 25.16739 55.66636 3322 ft 230 kts 121°
2026-05-05 21:13 25.15902 55.68137 3110 ft 228 kts 121°
2026-05-05 21:13 25.15072 55.69625 2925 ft 227 kts 121°
2026-05-05 21:13 25.14248 55.71102 2724 ft 225 kts 121°
2026-05-05 21:14 25.13425 55.72577 2535 ft 225 kts 121°
2026-05-05 21:14 25.12605 55.74044 2351 ft 223 kts 121°
2026-05-05 21:14 25.11796 55.75492 2144 ft 221 kts 121°
2026-05-05 21:14 25.10977 55.76956 2002 ft 221 kts 121°
2026-05-05 21:15 25.10190 55.78362 1993 ft 214 kts 121°
2026-05-05 21:15 25.09418 55.79743 1996 ft 210 kts 121°
2026-05-05 21:15 25.08658 55.81102 2003 ft 206 kts 121°
2026-05-05 21:15 25.07930 55.82403 1983 ft 192 kts 121°
2026-05-05 21:16 25.07251 55.83618 2000 ft 184 kts 122°
2026-05-05 21:16 25.06569 55.84812 2002 ft 185 kts 126°
2026-05-05 21:16 25.05522 55.85615 2011 ft 189 kts 165°
2026-05-05 21:16 25.04224 55.85506 2005 ft 192 kts 204°
2026-05-05 21:17 25.03089 55.84737 2003 ft 193 kts 212°
2026-05-05 21:17 25.01967 55.83917 2008 ft 193 kts 211°
2026-05-05 21:17 25.00884 55.83060 2004 ft 194 kts 227°
2026-05-05 21:17 25.00334 55.81718 2015 ft 197 kts 266°
2026-05-05 21:18 25.00640 55.80267 2014 ft 199 kts 300°
2026-05-05 21:18 25.01390 55.78983 2009 ft 198 kts 305°
2026-05-05 21:18 25.02170 55.77744 2005 ft 196 kts 305°
2026-05-05 21:18 25.02930 55.76500 2005 ft 196 kts 304°
2026-05-05 21:19 25.03693 55.75253 2005 ft 196 kts 305°
2026-05-05 21:19 25.04452 55.74000 1997 ft 196 kts 304°
2026-05-05 21:19 25.05180 55.72726 1999 ft 196 kts 303°
2026-05-05 21:19 25.05895 55.71443 1999 ft 196 kts 302°
2026-05-05 21:20 25.06606 55.70160 1997 ft 196 kts 302°
2026-05-05 21:20 25.07320 55.68873 1996 ft 197 kts 302°
2026-05-05 21:20 25.08023 55.67604 1993 ft 197 kts 302°
2026-05-05 21:20 25.08741 55.66310 1994 ft 198 kts 302°
2026-05-05 21:21 25.09458 55.65016 1992 ft 197 kts 302°
2026-05-05 21:21 25.10176 55.63723 1990 ft 198 kts 302°
2026-05-05 21:21 25.10891 55.62433 1991 ft 197 kts 302°
2026-05-05 21:21 25.11605 55.61146 1987 ft 196 kts 302°
2026-05-05 21:22 25.12319 55.59856 1986 ft 197 kts 302°
2026-05-05 21:22 25.13034 55.58566 1986 ft 197 kts 302°
2026-05-05 21:22 25.13752 55.57272 1983 ft 198 kts 302°
2026-05-05 21:22 25.14468 55.55979 1984 ft 198 kts 302°
2026-05-05 21:23 25.15183 55.54688 1984 ft 197 kts 302°
2026-05-05 21:23 25.15884 55.53423 1985 ft 187 kts 302°
2026-05-05 21:23 25.16550 55.52218 1977 ft 182 kts 302°
2026-05-05 21:23 25.17194 55.51058 1984 ft 170 kts 303°
2026-05-05 21:24 25.17776 55.50004 1975 ft 156 kts 302°
2026-05-05 21:24 25.18337 55.48992 1902 ft 154 kts 303°
2026-05-05 21:24 25.18897 55.47984 1710 ft 155 kts 303°
2026-05-05 21:24 25.19458 55.46968 1530 ft 155 kts 303°
2026-05-05 21:25 25.20013 55.45967 1323 ft 152 kts 303°
2026-05-05 21:25 25.20561 55.44974 1125 ft 151 kts 303°
2026-05-05 21:25 25.21103 55.43996 946 ft 148 kts 303°
2026-05-05 21:25 25.21636 55.43034 775 ft 146 kts 303°
2026-05-05 21:26 25.22163 55.42081 609 ft 145 kts 303°
2026-05-05 21:26 25.22683 55.41137 404 ft 143 kts 303°
2026-05-05 21:26 25.23204 55.40203 233 ft 145 kts 303°
2026-05-05 21:26 25.23735 55.39238 44 ft 143 kts 302°
2026-05-05 21:27 25.24186 55.38424 31 ft 105 kts 302°
2026-05-05 21:27 25.24509 55.37848 29 ft 74 kts 302°
2026-05-05 21:27 25.24741 55.37438 27 ft 54 kts 298°
2026-05-05 21:27 25.24885 55.37155 29 ft 21 kts 300°
2026-05-05 21:28 25.24924 55.37080 29 ft 11 kts 300°
2026-05-05 21:28 25.24969 55.36996 30 ft 14 kts 297°
2026-05-05 21:28 25.25005 55.36891 29 ft 16 kts 282°
2026-05-05 21:28 25.25019 55.36757 27 ft 19 kts 271°
2026-05-05 21:29 25.25021 55.36655 27 ft 0 kts 271°
2026-05-05 21:29 25.25021 55.36654 27 ft 0 kts 271°
2026-05-05 21:31 25.25021 55.36634 27 ft 6 kts 271°
2026-05-05 21:31 25.25022 55.36572 27 ft 10 kts 272°
2026-05-05 21:31 25.25030 55.36484 27 ft 12 kts 280°
2026-05-05 21:32 25.25051 55.36392 26 ft 13 kts 292°
2026-05-05 21:32 25.25096 55.36301 26 ft 10 kts 301°
2026-05-05 21:32 25.25130 55.36241 27 ft 11 kts 302°
2026-05-05 21:32 25.25160 55.36169 26 ft 9 kts 258°
2026-05-05 21:33 25.25114 55.36137 26 ft 9 kts 172°
2026-05-05 21:33 25.25059 55.36182 26 ft 12 kts 122°
2026-05-05 21:33 25.25013 55.36266 29 ft 14 kts 121°
2026-05-05 21:33 25.24960 55.36361 26 ft 15 kts 121°
2026-05-05 21:34 25.24901 55.36467 26 ft 17 kts 121°
2026-05-05 21:34 25.24858 55.36544 26 ft 11 kts 122°
2026-05-05 21:34 25.24820 55.36614 26 ft 12 kts 117°
2026-05-05 21:34 25.24792 55.36695 26 ft 11 kts 106°
2026-05-05 21:35 25.24775 55.36786 27 ft 12 kts 98°
2026-05-05 21:35 25.24741 55.36875 26 ft 14 kts 122°
2026-05-05 21:35 25.24699 55.36948 26 ft 11 kts 122°
2026-05-05 21:35 25.24659 55.37019 26 ft 10 kts 122°
2026-05-05 21:36 25.24616 55.37095 26 ft 13 kts 122°
2026-05-05 21:36 25.24567 55.37180 30 ft 11 kts 122°
2026-05-05 21:36 25.24527 55.37251 28 ft 9 kts 122°
2026-05-05 21:36 25.24490 55.37317 29 ft 10 kts 122°
2026-05-05 21:37 25.24456 55.37376 30 ft 8 kts 122°
2026-05-05 21:37 25.24435 55.37413 27 ft 6 kts 122°
2026-05-05 21:37 25.24411 55.37466 31 ft 6 kts 117°
2026-05-05 21:37 25.24392 55.37501 32 ft 1 kts 143°
2026-05-05 21:38 25.24376 55.37508 31 ft 4 kts 175°
2026-05-05 21:38 25.24359 55.37506 29 ft 3 kts 201°
2026-05-05 21:38 25.24348 55.37499 30 ft 2 kts 218°
2026-05-05 21:38 25.24334 55.37479 32 ft 5 kts 251°
2026-05-05 21:39 25.24320 55.37455 29 ft 3 kts 216°
2026-05-05 21:39 25.24313 55.37450 31 ft 1 kts 210°
2026-05-05 21:39 25.24312 55.37449 31 ft 0 kts 210°
2026-05-05 21:39 25.24306 55.37445 31 ft 0 kts 211°